Middlebury State AP, Middlebu, VT

8:07 AM EST on November 17, 2019 (GMT -0500)
Middlebury State AP, Middlebu

Weather History for K6B0 - June, 2019

Change the Weather History Date:

Thursday, June 6, 2019

  Actual Average (KRUT) Record (KRUT)
Temperature  
Mean Temperature 62 °F -  
Max Temperature 72 °F 73 °F 90 °F (1968)
Min Temperature 52 °F 50 °F 35 °F (1964)
Degree Days  
Heating Degree Days 4    
Growing Degree Days 12 (Base 50)    
Moisture  
Dew Point 53 °F    
Average Humidity 76    
Maximum Humidity 99    
Minimum Humidity 37    
Precipitation  
Precipitation 0.32 in - - ()
Sea Level Pressure  
Sea Level Pressure 29.77 in    
Wind  
Wind Speed 5 mph (NNW)    
Max Wind Speed 13 mph    
Max Gust Speed 18 mph    
Visibility 8 miles    
Events Fog , Rain    
Averages and records for this station are not official NWS values.
T = Trace of Precipitation, MM = Missing Value Source: NWS Daily Summary

Daily Weather History Graph

Daily Weather History Graph

Search for Another Location

Airport or City:

Astronomy

Jun. 06, 2019 Rise Set
Actual Time 5:10 AM EDT 8:31 PM EDT
Civil Twilight 4:34 AM EDT 9:07 PM EDT
Nautical Twilight 3:48 AM EDT 9:54 PM EDT
Astronomical Twilight 2:50 AM EDT 10:52 PM EDT
Moon 8:16 AM EDT (6/6) 11:45 PM EDT (6/6)
Length of Visible Light 16h 32m
Length of Day
15h 21m
Waxing Crescent, 13% of the Moon is Illuminated
Jun 6
Waxing Crescent
Jun 10
First Quarter
Jun 17
Full
Jun 25
Last Quarter
Jul 2
New

Hourly Weather History & Observations

Time (EDT) Temp. Dew Point Humidity Pressure Visibility Wind Dir Wind Speed Gust Speed Precip Events Conditions
12:15 AM 60.8 °F 60.3 °F 98% 29.69 in 5.0 mi Calm Calm - 0.01 in Rain Rain
12:35 AM 60.4 °F 60.1 °F 99% 29.68 in 3.0 mi Calm Calm - 0.03 in Rain Rain
12:55 AM 60.4 °F 60.1 °F 99% 29.67 in 2.5 mi NNE 3.5 mph - 0.05 in Rain Rain
1:15 AM 60.4 °F 59.9 °F 98% 29.67 in 4.0 mi North 4.6 mph - 0.02 in Rain Rain
1:35 AM 60.1 °F 59.9 °F 99% 29.66 in 4.0 mi North 4.6 mph - 0.05 in Rain Light Rain
1:55 AM 60.1 °F 59.7 °F 99% 29.65 in 5.0 mi North 3.5 mph - 0.08 in Rain Rain
2:35 AM 59.9 °F 59.5 °F 99% 29.64 in 3.0 mi Calm Calm - 0.10 in Rain Rain
2:36 AM 59.9 °F 59.5 °F 99% 29.64 in 4.0 mi North 3.5 mph - 0.10 in Rain Light Rain
2:55 AM 59.5 °F 59.0 °F 98% 29.65 in 5.0 mi North 4.6 mph - 0.11 in Rain Light Rain
2:56 AM 59.4 °F 59.0 °F 99% 29.65 in 5.0 mi North 3.5 mph - 0.11 in Rain Light Rain
3:15 AM 59.0 °F 58.5 °F 98% 29.65 in 7.0 mi North 4.6 mph - 0.02 in Rain Rain
3:16 AM 59.0 °F 58.5 °F 98% 29.65 in 7.0 mi NNW 4.6 mph - 0.02 in Rain Rain
3:35 AM 58.5 °F 58.1 °F 99% 29.65 in 7.0 mi North 5.8 mph - 0.03 in Rain Rain
3:36 AM 58.5 °F 58.1 °F 99% 29.65 in 7.0 mi North 5.8 mph - 0.03 in Rain Rain
3:55 AM 58.5 °F 58.1 °F 99% 29.65 in 7.0 mi North 3.5 mph - 0.04 in Rain Rain
3:56 AM 58.5 °F 58.1 °F 99% 29.65 in 7.0 mi North 4.6 mph - 0.04 in Rain Rain
4:15 AM 58.3 °F 58.1 °F 99% 29.65 in 5.0 mi North 4.6 mph - N/A   Drizzle
4:16 AM 58.3 °F 58.1 °F 99% 29.65 in 5.0 mi North 3.5 mph - N/A   Drizzle
4:35 AM 58.1 °F 57.6 °F 98% 29.66 in 5.0 mi NNW 5.8 mph - 0.01 in Rain Rain
4:36 AM 58.1 °F 57.6 °F 98% 29.66 in 5.0 mi NNW 4.6 mph - 0.01 in Rain Rain
4:55 AM 57.7 °F 57.4 °F 99% 29.67 in 4.0 mi North 5.8 mph - 0.02 in   Drizzle
4:56 AM 57.7 °F 57.4 °F 99% 29.67 in 4.0 mi North 4.6 mph - 0.02 in   Drizzle
5:16 AM 57.6 °F 57.2 °F 99% 29.68 in 7.0 mi North 5.8 mph - 0.01 in Rain Light Rain
5:35 AM 57.7 °F 57.4 °F 99% 29.69 in 10.0 mi North 4.6 mph - 0.01 in Rain Rain
5:36 AM 57.7 °F 57.4 °F 99% 29.69 in 10.0 mi North 4.6 mph - 0.01 in Rain Light Rain
5:55 AM 57.4 °F 57.0 °F 99% 29.69 in 3.0 mi NNW 4.6 mph - 0.01 in   Drizzle
5:56 AM 57.4 °F 57.0 °F 99% 29.69 in 3.0 mi NNW 4.6 mph - 0.01 in   Drizzle
6:15 AM 57.0 °F 56.5 °F 98% 29.70 in 3.0 mi NNW 6.9 mph - 0.01 in   Light Drizzle
6:16 AM 57.0 °F 56.5 °F 98% 29.70 in 2.5 mi NNW 5.8 mph - 0.01 in   Light Drizzle
6:35 AM 56.7 °F 56.3 °F 99% 29.71 in 0.5 mi NNW 6.9 mph - 0.01 in Fog Fog
6:36 AM 56.7 °F 56.3 °F 99% 29.72 in 0.5 mi NNW 5.8 mph - 0.01 in Fog Fog
6:55 AM 56.7 °F 56.3 °F 99% 29.73 in 0.8 mi North 4.6 mph - 0.01 in   Overcast
6:56 AM 56.7 °F 56.3 °F 99% 29.73 in 0.8 mi North 4.6 mph - 0.01 in   Overcast
7:15 AM 56.7 °F 56.3 °F 99% 29.73 in 1.2 mi NNW 5.8 mph - N/A   Overcast
7:16 AM 56.7 °F 56.3 °F 99% 29.73 in 1.2 mi NNW 6.9 mph - N/A   Overcast
7:35 AM 56.7 °F 56.3 °F 99% 29.74 in 4.0 mi NNW 8.1 mph - N/A   Overcast
7:36 AM 56.7 °F 56.3 °F 99% 29.74 in 4.0 mi NNW 8.1 mph - N/A   Overcast
7:55 AM 56.5 °F 56.1 °F 99% 29.75 in 7.0 mi NNW 9.2 mph - N/A   Overcast
7:56 AM 56.5 °F 56.1 °F 99% 29.75 in 7.0 mi NNW 9.2 mph - N/A   Overcast
8:15 AM 56.8 °F 56.3 °F 98% 29.76 in 10.0 mi NNW 6.9 mph - N/A   Overcast
8:16 AM 57.0 °F 56.5 °F 98% 29.76 in 10.0 mi NNW 8.1 mph - N/A   Overcast
8:35 AM 58.3 °F 56.3 °F 93% 29.76 in 10.0 mi NNW 9.2 mph - N/A   Overcast
8:36 AM 58.3 °F 56.3 °F 93% 29.76 in 10.0 mi NNW 9.2 mph - N/A   Overcast
8:55 AM 59.5 °F 55.9 °F 88% 29.76 in 10.0 mi North 8.1 mph - N/A   Mostly Cloudy
8:56 AM 59.5 °F 55.9 °F 88% 29.76 in 10.0 mi North 8.1 mph - N/A   Mostly Cloudy
9:15 AM 60.1 °F 55.8 °F 86% 29.76 in 10.0 mi North 9.2 mph - N/A   Mostly Cloudy
9:16 AM 60.3 °F 55.9 °F 86% 29.76 in 10.0 mi North 9.2 mph - N/A   Mostly Cloudy
9:37 AM 61.3 °F 55.6 °F 81% 29.77 in 10.0 mi NNW 8.1 mph - N/A   Scattered Clouds
9:56 AM 62.6 °F 54.3 °F 74% 29.78 in 10.0 mi NNW 8.1 mph 17.3 mph N/A   Scattered Clouds
10:15 AM 63.9 °F 54.5 °F 72% 29.78 in 10.0 mi NNW 11.5 mph 18.4 mph N/A   Mostly Cloudy
10:35 AM 63.1 °F 53.2 °F 70% 29.79 in 10.0 mi NNW 11.5 mph - N/A   Scattered Clouds
10:58 AM 64.4 °F 52.5 °F 65% 29.79 in 10.0 mi NNW 9.2 mph - N/A   Scattered Clouds
11:16 AM 65.3 °F 51.8 °F 62% 29.79 in 10.0 mi NW 3.5 mph - N/A   Clear
11:36 AM 66.2 °F 51.6 °F 59% 29.80 in 10.0 mi NW 8.1 mph - N/A   Clear
11:55 AM 66.9 °F 52.3 °F 59% 29.80 in 10.0 mi NNW 4.6 mph - N/A   Clear
11:56 AM 66.9 °F 52.3 °F 59% 29.80 in 10.0 mi NW 6.9 mph - N/A   Clear
12:15 PM 67.3 °F 51.4 °F 57% 29.80 in 10.0 mi NNW 5.8 mph - N/A   Clear
12:19 PM 67.5 °F 51.8 °F 57% 29.80 in 10.0 mi NNW 9.2 mph - N/A   Clear
12:37 PM 68.0 °F 52.2 °F 57% 29.80 in 10.0 mi North 8.1 mph - N/A   Clear
12:55 PM 68.4 °F 52.2 °F 56% 29.79 in 10.0 mi North 6.9 mph - N/A   Clear
1:15 PM 69.1 °F 52.5 °F 55% 29.80 in 10.0 mi NW 8.1 mph - N/A   Clear
1:16 PM 69.3 °F 52.3 °F 55% 29.80 in 10.0 mi NNW 9.2 mph - N/A   Clear
1:35 PM 70.2 °F 51.6 °F 52% 29.80 in 10.0 mi NW 11.5 mph - N/A   Clear
1:36 PM 70.0 °F 51.6 °F 52% 29.80 in 10.0 mi NW 10.4 mph - N/A   Clear
1:59 PM 70.3 °F 50.4 °F 49% 29.80 in 10.0 mi NNW 8.1 mph - N/A   Clear
2:17 PM 70.5 °F 48.0 °F 45% 29.80 in 10.0 mi NNE 11.5 mph - N/A   Clear
2:35 PM 71.4 °F 46.9 °F 42% 29.80 in 10.0 mi North 11.5 mph 16.1 mph N/A   Clear
2:36 PM 71.6 °F 46.4 °F 41% 29.80 in 10.0 mi North 10.4 mph 16.1 mph N/A   Clear
2:55 PM 71.6 °F 43.7 °F 37% 29.80 in 10.0 mi NNW 10.4 mph - N/A   Clear
3:15 PM 71.6 °F 46.0 °F 40% 29.81 in 10.0 mi NNW 10.4 mph 16.1 mph N/A   Clear
3:19 PM 71.8 °F 46.6 °F 41% 29.81 in 10.0 mi NNW 8.1 mph - N/A   Clear
3:37 PM 71.6 °F 48.4 °F 44% 29.81 in 10.0 mi NNW 8.1 mph - N/A   Clear
3:56 PM 71.8 °F 49.1 °F 45% 29.81 in 10.0 mi NNW 8.1 mph - N/A   Clear
4:15 PM 70.9 °F 48.7 °F 45% 29.81 in 10.0 mi North 8.1 mph 16.1 mph N/A   Clear
4:16 PM 71.1 °F 49.3 °F 46% 29.81 in 10.0 mi North 9.2 mph 16.1 mph N/A   Clear
4:35 PM 71.4 °F 48.6 °F 44% 29.81 in 10.0 mi NNE 10.4 mph - N/A   Clear
4:36 PM 71.2 °F 48.4 °F 44% 29.81 in 10.0 mi NE 8.1 mph - N/A   Clear
4:58 PM 71.1 °F 48.9 °F 45% 29.82 in 10.0 mi North 12.7 mph - N/A   Clear
5:16 PM 71.2 °F 48.4 °F 44% 29.82 in 10.0 mi North 6.9 mph - N/A   Clear
5:36 PM 70.9 °F 47.5 °F 43% 29.82 in 10.0 mi North 11.5 mph 16.1 mph N/A   Clear
5:55 PM 70.7 °F 46.9 °F 43% 29.82 in 10.0 mi NW 8.1 mph - N/A   Clear
5:56 PM 70.7 °F 46.9 °F 43% 29.82 in 10.0 mi NNW 6.9 mph - N/A   Clear
6:15 PM 70.5 °F 47.1 °F 43% 29.83 in 10.0 mi North 9.2 mph - N/A   Clear
6:38 PM 70.0 °F 47.3 °F 44% 29.83 in 10.0 mi North 6.9 mph - N/A   Clear
6:55 PM 69.6 °F 48.0 °F 46% 29.83 in 10.0 mi NNW 5.8 mph - N/A   Clear
7:15 PM 68.9 °F 46.8 °F 45% 29.84 in 10.0 mi NNW 4.6 mph - N/A   Clear
7:16 PM 68.9 °F 46.8 °F 45% 29.84 in 10.0 mi NNW 3.5 mph - N/A   Clear
7:35 PM 68.0 °F 47.5 °F 48% 29.84 in 10.0 mi Calm Calm - N/A   Clear
7:36 PM 67.8 °F 47.8 °F 49% 29.84 in 10.0 mi NNW 3.5 mph - N/A   Clear
7:58 PM 63.9 °F 51.8 °F 65% 29.84 in 10.0 mi Calm Calm - N/A   Clear
8:16 PM 61.9 °F 51.4 °F 69% 29.85 in 10.0 mi Calm Calm - N/A   Clear
8:36 PM 60.1 °F 52.3 °F 76% 29.85 in 10.0 mi Calm Calm - N/A   Clear
8:55 PM 58.1 °F 52.3 °F 81% 29.85 in 10.0 mi Calm Calm - N/A   Clear
8:56 PM 58.1 °F 52.3 °F 81% 29.85 in 10.0 mi Calm Calm - N/A   Clear
9:15 PM 56.5 °F 50.7 °F 81% 29.86 in 10.0 mi Calm Calm - N/A   Clear
9:19 PM 56.7 °F 50.5 °F 80% 29.86 in 10.0 mi Calm Calm - N/A   Clear
9:37 PM 56.1 °F 49.1 °F 77% 29.87 in 10.0 mi Calm Calm - N/A   Clear
9:55 PM 55.2 °F 49.1 °F 80% 29.88 in 10.0 mi Calm Calm - N/A   Clear
10:15 PM 54.7 °F 48.9 °F 81% 29.88 in 10.0 mi Calm Calm - N/A   Clear
10:16 PM 54.7 °F 49.1 °F 81% 29.88 in 10.0 mi Calm Calm - N/A   Clear
10:35 PM 54.0 °F 48.9 °F 83% 29.89 in 10.0 mi Calm Calm - N/A   Clear
10:36 PM 54.0 °F 48.7 °F 82% 29.89 in 10.0 mi Calm Calm - N/A   Clear
10:59 PM 53.6 °F 47.7 °F 80% 29.89 in 10.0 mi Calm Calm - N/A   Clear
11:16 PM 53.1 °F 48.4 °F 84% 29.89 in 10.0 mi Calm Calm - N/A   Clear
11:36 PM 52.7 °F 48.0 °F 84% 29.90 in 10.0 mi Calm Calm - N/A   Clear
11:55 PM 52.3 °F 48.2 °F 86% 29.90 in 10.0 mi Calm Calm - N/A   Clear
11:56 PM 52.3 °F 48.2 °F 86% 29.90 in 10.0 mi Calm Calm - N/A   Clear